Location: George Washington National Forest Helicopter Landing Site
(38.6463°N, 79.0851°W)
Time: 12:13:22
(UTC-04:00)

Tiros 1 despin weight - Pass Details

Date: 23 August 2019
Orbit: 595 x 642 km, 48.2° (Epoch: 15 September)

Event Time Altitude Azimuth Distance (km) Brightness Sun altitude
Rises 01:22:28 0° 259° (W) 2,829 - -39.8°
Reaches altitude 10° 01:24:51 10° 267° (W) 1,934 - -39.8°
Maximum altitude 01:29:03 40° 338° (NNW) 888 - -39.8°
Drops below altitude 10° 01:33:19 10° 49° (NE) 1,964 - -39.7°
Exits shadow 01:35:07 - 55° (NE) 2,636 ? -39.7°
Sets 01:35:45 0° 57° (ENE) 2,879 ? -39.7°
